TimeEDT,TemperatureF,Dew PointF,Humidity,Sea Level PressureIn,VisibilityMPH,Wind Direction,Wind SpeedMPH,Gust SpeedMPH,PrecipitationIn,Events,Conditions,WindDirDegrees,DateUTC
12:53 AM,26.1,12.0,55,29.74,10.0,Calm,Calm,-,N/A,,Clear,0,2013-03-22 04:53:00
1:53 AM,24.1,12.9,62,29.74,10.0,South,3.5,-,N/A,,Mostly Cloudy,190,2013-03-22 05:53:00
2:53 AM,24.1,12.9,62,29.74,10.0,Calm,Calm,-,N/A,,Mostly Cloudy,0,2013-03-22 06:53:00
3:53 AM,25.0,12.9,60,29.73,10.0,Calm,Calm,-,N/A,,Overcast,0,2013-03-22 07:53:00
4:53 AM,24.1,14.0,65,29.73,10.0,SW,3.5,-,N/A,,Partly Cloudy,220,2013-03-22 08:53:00
5:53 AM,23.0,15.1,72,29.74,10.0,Calm,Calm,-,N/A,,Clear,0,2013-03-22 09:53:00
6:53 AM,25.0,15.1,66,29.75,10.0,SSW,3.5,-,N/A,,Partly Cloudy,200,2013-03-22 10:53:00
7:53 AM,27.0,16.0,63,29.77,10.0,Variable,3.5,-,N/A,,Clear,0,2013-03-22 11:53:00
8:53 AM,30.0,16.0,56,29.78,10.0,Variable,5.8,18.4,N/A,,Clear,0,2013-03-22 12:53:00
9:53 AM,32.0,17.1,54,29.78,10.0,Variable,3.5,-,N/A,,Mostly Cloudy,0,2013-03-22 13:53:00
10:53 AM,34.0,17.1,50,29.79,10.0,West,9.2,18.4,0.00,,Mostly Cloudy,280,2013-03-22 14:53:00
11:53 AM,36.0,18.0,48,29.80,10.0,Variable,4.6,-,0.00,,Overcast,0,2013-03-22 15:53:00
12:53 PM,35.1,18.0,50,29.79,10.0,Variable,5.8,-,0.00,,Overcast,0,2013-03-22 16:53:00
1:53 PM,37.0,16.0,42,29.78,10.0,West,12.7,20.7,0.00,,Overcast,260,2013-03-22 17:53:00
2:53 PM,37.0,17.1,44,29.78,10.0,West,11.5,18.4,0.00,,Overcast,270,2013-03-22 18:53:00
3:53 PM,37.9,16.0,41,29.78,10.0,West,6.9,24.2,0.00,,Overcast,280,2013-03-22 19:53:00
4:53 PM,39.0,16.0,39,29.79,10.0,Variable,5.8,-,N/A,,Overcast,0,2013-03-22 20:53:00
5:53 PM,37.9,16.0,41,29.81,10.0,West,8.1,16.1,N/A,,Overcast,270,2013-03-22 21:53:00
6:53 PM,37.0,16.0,42,29.82,10.0,West,4.6,-,N/A,,Overcast,260,2013-03-22 22:53:00
7:53 PM,37.0,17.1,44,29.84,10.0,Variable,4.6,-,N/A,,Overcast,0,2013-03-22 23:53:00
8:53 PM,35.1,19.9,54,29.86,10.0,Calm,Calm,-,N/A,,Overcast,0,2013-03-23 00:53:00
9:53 PM,35.1,21.0,57,29.87,10.0,Variable,5.8,-,N/A,,Overcast,0,2013-03-23 01:53:00
10:53 PM,35.1,19.9,54,29.87,10.0,SW,3.5,-,N/A,,Overcast,220,2013-03-23 02:53:00
11:53 PM,35.1,19.0,52,29.88,10.0,Variable,4.6,-,0.00,,Overcast,0,2013-03-23 03:53:00